#timestamp,LO_Frequency,Hit,StdDev 
1560708015.6,286047002.0,N
1560708035.4,286047002.3,N
1560708055.3,286047001.8,N
1560708075.1,286046999.8,N
1560708095.8,286047002.8,N
1560708115.7,286047002.3,N
1560708135.5,286047002.0,N
1560708155.4,286047002.1,N
1560708175.2,286047002.3,N
1560708195.0,286047001.5,N
1560708195.9,286047001.5,N
1560708215.8,286047001.8,N
1560708235.6,286047003.5,N
1560708255.4,286047003.9,N
1560708275.3,286047001.7,N
1560708295.1,286047001.6,N
1560708315.9,286047000.2,N
1560708335.7,286047000.6,N
1560708355.5,286047002.8,N
1560708375.4,286047001.4,N
1560708395.2,286047004.0,Y
1560708415.1,286047001.1,P
1560708416.0,286047001.1,N
1560708435.8,286047000.6,N
1560708455.6,286046999.7,N
1560708475.5,286047000.3,N
1560708495.3,286047002.7,Y
1560708515.2,286047000.1,P
1560708535.9,286047000.4,N
1560708555.7,286047000.9,P
1560708575.6,286046999.9,N
1560708595.4,286047000.0,N
1560708615.2,286047002.4,Y
1560708635.1,286046999.8,P
1560708636.0,286046999.8,N
1560708655.8,286047000.1,N
1560708675.7,286046999.8,N
1560708695.5,286047002.7,Y
1560708715.3,286047001.0,P
1560708735.2,286047001.6,P
1560708755.0,286047000.2,N
1560708755.9,286047000.2,N
1560708775.8,286047000.6,N
1560708795.6,286046998.2,Y
1560708815.4,286047001.2,P
1560708835.3,286046999.9,N
1560708855.1,286046999.8,N
1560708875.8,286047002.7,Y
1560708895.7,286046999.7,P
1560708915.5,286047000.1,N
1560708935.4,286046999.7,N
1560708955.2,286046999.8,N
1560708975.0,286047002.4,Y
1560708975.9,286047002.4,P
1560708995.8,286047002.8,N
1560709015.6,286047002.4,N
1560709035.4,286047002.6,N
1560709055.3,286047001.8,N
1560709075.1,286047001.9,N
1560709095.9,286047000.7,N
1560709115.7,286047000.7,N
1560709135.5,286046999.9,N
1560709155.4,286047002.3,N
1560709175.2,286046999.9,N
1560709195.0,286047002.2,N
1560709195.9,286047002.2,N
1560709215.8,286046999.9,N
1560709235.6,286047002.5,N
1560709255.5,286047000.7,N
1560709275.3,286047001.1,N
1560709295.1,286047000.7,N
1560709315.9,286047000.4,N
1560709335.7,286046999.8,N
1560709355.5,286047000.3,N
1560709375.4,286046999.9,N
1560709395.2,286047001.0,N
1560709415.1,286046999.8,N
1560709416.0,286046999.8,N
1560709435.8,286047000.1,N
1560709455.6,286047004.4,Y
1560709475.5,286047002.2,P
1560709495.3,286047002.4,P
1560709515.2,286046999.8,N
1560709535.9,286047002.4,N
1560709555.7,286047002.5,N
1560709575.6,286046999.8,N
1560709595.4,286047000.9,N
1560709615.2,286046998.8,N
1560709635.1,286047001.2,N
1560709636.0,286047001.2,N
1560709655.8,286047000.9,N
1560709675.7,286047000.6,N
1560709695.5,286047000.3,N
1560709715.3,286047001.0,N
1560709735.2,286047002.7,N
1560709755.0,286046999.8,N
1560709755.9,286046999.8,N
1560709775.7,286047002.8,N
1560709795.6,286047001.5,N
1560709815.4,286047000.3,N
1560709835.3,286047001.0,N
1560709855.1,286047000.6,N
1560709856.0,286047000.6,N
1560709875.8,286047002.3,N
1560709895.7,286046999.8,N
1560709915.5,286046999.7,N
1560709935.3,286047002.4,N
1560709955.2,286047002.5,N
1560709975.0,286047002.2,N
1560709975.9,286047002.2,N
1560709995.8,286047002.1,N
1560710015.6,286047001.6,N
1560710035.4,286047001.7,N
1560710055.3,286047002.2,N
1560710075.1,286047002.3,N
1560710095.8,286047000.1,N
1560710115.7,286047002.5,N
1560710135.5,286047002.2,N
1560710155.4,286046998.1,N
1560710175.2,286046998.8,N
1560710195.3,286046998.9,N
1560710215.1,286046999.0,N
1560710216.0,286046999.0,N
1560710235.8,286046998.6,N
1560710255.7,286046998.4,N
1560710275.5,286047001.2,N
1560710295.3,286046998.6,N
1560710315.2,286046998.2,N
1560710335.0,286046998.5,N
1560710335.9,286046998.5,N
1560710355.2,286046998.9,N
1560710375.1,286046996.9,N
1560710376.0,286046996.9,N
1560710395.8,286046997.4,N
1560710415.6,286046997.4,N
1560710435.5,286046997.5,N
1560710455.3,286046995.0,N
1560710475.2,286046995.1,N
1560710495.9,286046997.3,N
1560710515.7,286046997.3,N
1560710535.6,286046997.3,N
1560710555.4,286046997.2,N
1560710575.2,286046997.3,N
1560710595.1,286046997.5,N
1560710596.0,286046997.5,N
1560710615.8,286046997.5,N
1560710635.7,286046997.7,N
1560710655.5,286046997.8,N
1560710675.3,286046996.8,N
1560710695.2,286046997.6,N
1560710715.0,286046997.9,N
1560710715.9,286046997.9,N
1560710735.7,286046995.0,Y
1560710755.6,286046998.6,P
1560710775.4,286047001.1,N
1560710795.3,286047000.6,N
1560710815.1,286046998.2,N
1560710816.0,286046998.2,N
1560710835.8,286046998.6,N
1560710855.7,286047000.7,N
1560710875.5,286047000.9,N
1560710895.3,286046998.9,N
1560710915.2,286047001.1,N
1560710935.0,286046999.3,N
1560710935.9,286046999.3,N
1560710955.8,286046999.3,N
1560710975.6,286046999.4,N
1560710995.4,286046998.4,N
1560711015.3,286046998.4,N
1560711035.1,286046998.4,N
1560711055.9,286047000.8,N
1560711075.7,286047000.7,N
1560711095.5,286047000.5,N
1560711115.4,286047002.4,N
1560711135.2,286046999.7,N
1560711155.0,286047000.6,N
1560711156.0,286047000.6,N
1560711175.8,286047000.1,N
1560711195.6,286047000.1,N
1560711215.5,286047000.1,N
1560711235.3,286047002.4,N
1560711255.1,286047002.7,N
1560711305.9,286047001.6,E
1560711315.8,286047004.3,N
1560711365.7,286046998.8,E
1560711375.6,286046999.3,N
1560711395.4,286047000.8,P
1560711415.3,286047000.1,N
1560711435.1,286047000.1,N
1560711455.9,286047000.1,N
1560711475.7,286047000.1,N
1560711495.5,286047001.0,N
1560711515.4,286046998.6,N
1560711535.2,286046999.2,N
1560711555.0,286047000.8,N
1560711555.9,286047000.8,N
1560711575.8,286046999.1,N
1560711595.6,286046996.5,Y
